[[{"header":{"parameterUnit":"m.s-1","parameterCategory":2,"la1":30.2991,"la2":30.254,"lo1":-89.0895,"lo2":-89.0444,"dy":0.0017,"dx":0.0017,"nx":28,"ny":28,"refTime":"2025-07-10T03:00:00:Z","depth":"0","parameterNumber":2,"parameterNumberName":"U-component_of_CURRENTS"},"data":[0,0,0,0,0,0,0,0,0,0,0,0,0,0,0,0,0,0,0,0,0,0,0,0,0,0,0,0,0,0,0,0,0,0,0,0,0,0,0,0,0,0,0,0,0,0,0,0,0,0,0,0,0,0,0,0,0,0,0.4467,0.4468,0,0.4606,0.4607,0.4609,0.4581,0.4578,0.4576,0.4574,0.4628,0.4631,0.4635,0,0,0,0,0,0,0,0,0,0,0,0,0,0.429,0.4292,0.4467,0.4468,0.447,0.4606,0.4607,0.4609,0.4581,0.4578,0.4575,0.4573,0.4626,0.4631,0.4635,0,0,0,0,0,0,0,0,0,0,0,0,0,0.439,0.4293,0.4466,0.4473,0.4475,0.4605,0.4608,0.461,0.4582,0.4578,0.4575,0.4571,0.4625,0.463,0.4636,0.4744,0,0,0.4653,0.4655,0,0,0,0,0,0,0,0,0.4384,0.4397,0.447,0.4473,0.4476,0.4573,0.4565,0.4651,0.4583,0.4541,0.4574,0.4569,0.4605,0.4612,0.4646,0.4747,0.4749,0.4653,0.4657,0.4659,0.4661,0,0,0,0,0,0,0,0.4377,0.4391,0.4521,0.4473,0.4476,0.4509,0.4518,0.4582,0.4589,0.4544,0.4542,0.4561,0.4605,0.4641,0.4647,0.475,0.4653,0.4658,0.4662,0.4664,0.4931,0.4935,0,0,0,0,0,0,0.4361,0.4385,0.4516,0.4525,0.4421,0.4514,0.4524,0.4545,0.459,0.4595,0.4564,0.4559,0.4633,0.464,0.4649,0.4802,0.4659,0.4664,0.4668,0.4928,0.4932,0.4936,0,0,0,0,0,0,0.4357,0.4372,0.4511,0.4458,0.4478,0.452,0.4544,0.4549,0.4579,0.4607,0.4608,0.4586,0.4631,0.4641,0.4732,0.4802,0.4667,0.4672,0.4923,0.4929,0.4934,0.5093,0,0,0,0,0,0,0.4351,0.437,0.4386,0.4457,0.448,0.4612,0.4548,0.4555,0.4596,0.4591,0.4627,0.4629,0.4628,0.4724,0.4737,0.4807,0.4676,0.4918,0.4926,0.4932,0.5083,0.5103,0.5121,0,0,0,0,0,0.4345,0.4401,0.4386,0.4402,0.4499,0.4615,0.4633,0.4648,0.4601,0.4652,0.467,0.4627,0.4776,0.4733,0.4748,0.482,0.4915,0.4924,0.4932,0.5074,0.5099,0.512,0,0,0,0,0,0,0.4341,0.4406,0.439,0.4461,0.4534,0.4611,0.4664,0.4661,0.4718,0.4703,0.4696,0.4705,0.4817,0.4799,0.4751,0.4916,0.4832,0.4843,0.4935,0.4958,0.4977,0.5061,0.4681,0,0,0,0,0,0.4346,0.4399,0.4464,0.4526,0.4561,0.4607,0.4652,0.4667,0.4724,0.4743,0.4766,0.4796,0.4871,0.4893,0.4958,0.5053,0.5101,0.5102,0.5121,0.5137,0.5215,0.5371,0.5413,0.4964,0.4964,0.4964,0,0,0.4373,0.4405,0.4442,0.4528,0.4578,0.4692,0.4626,0.4716,0.4812,0.4745,0.4871,0.4883,0.4918,0.5036,0.5078,0.502,0.5278,0.5147,0.5161,0.5233,0.5384,0.5429,0.5468,0.497,0.4969,0.4968,0,0,0.4479,0.4473,0.4566,0.463,0.4711,0.4755,0.478,0.4863,0.4896,0.5011,0.4999,0.5069,0.5141,0.5211,0.5245,0.5412,0.5391,0.5387,0.5538,0.5687,0.5726,0.5762,0.5832,0.5873,0.5374,0.5374,0.5375,0,0.4512,0.4616,0.4618,0.4724,0.4802,0.4789,0.493,0.4986,0.5086,0.5167,0.5065,0.5252,0.5249,0.5449,0.5487,0.5464,0.5512,0.5443,0.5716,0.5753,0.5786,0.585,0.5893,0.5383,0.5382,0.5381,0.538,0,0.4712,0.4774,0.484,0.4963,0.5051,0.5165,0.5239,0.5332,0.5332,0.5388,0.5552,0.5547,0.5657,0.5644,0.5614,0.5852,0.5795,0.5738,0.5663,0.5842,0.5895,0.5938,0.5395,0.5392,0.539,0.5388,0,0,0.486,0.4961,0.4984,0.5053,0.5182,0.5281,0.5461,0.5647,0.5738,0.5808,0.5949,0.6066,0.6023,0.6064,0.6015,0.6115,0.6341,0.6025,0.6028,0.6104,0.6635,0.6406,0.6428,0.6328,0.6338,0.6345,0.6559,0,0.5027,0.5218,0.5251,0.546,0.5573,0.5631,0.5773,0.5924,0.5981,0.6096,0.6155,0.6225,0.6188,0.6163,0.6309,0.6321,0.6469,0.6287,0.6446,0.6451,0.6236,0.6477,0.6095,0.624,0.66,0.6606,0.6611,0,0.5255,0.5328,0.5535,0.5665,0.5722,0.5842,0.6061,0.6175,0.6345,0.637,0.6511,0.6483,0.6671,0.6525,0.6812,0.6692,0.6734,0.6733,0.674,0.6523,0.6305,0.613,0.6302,0.607,0.6675,0.667,0.6666,0,0.5379,0.5554,0.5701,0.576,0.5901,0.6024,0.6116,0.6286,0.6353,0.6517,0.6528,0.6765,0.6772,0.6963,0.6977,0.6914,0.722,0.7117,0.6991,0.697,0.6682,0.662,0.6667,0.7402,0.7401,0.74,0.74,0,0.5556,0.5676,0.575,0.5828,0.5963,0.6077,0.6216,0.6329,0.645,0.6516,0.6632,0.669,0.6881,0.7022,0.7099,0.7178,0.7356,0.7113,0.7062,0.6712,0.6654,0.6461,0.6402,0.7408,0.7407,0.7405,0.7404,0,0.5636,0.5712,0.584,0.5969,0.6006,0.6088,0.6191,0.6265,0.6387,0.6468,0.6503,0.6692,0.6865,0.7025,0.7257,0.725,0.7145,0.7351,0.6882,0.6772,0.6368,0.6331,0.6289,0.6123,0.7269,0.7266,0.7263,0,0.5677,0.5752,0.5855,0.587,0.5908,0.6012,0.605,0.6205,0.6259,0.6448,0.6474,0.6662,0.6737,0.699,0.7026,0.7157,0.7024,0.6861,0.6698,0.6379,0.6304,0.6146,0.6,0.6366,0.6355,0.6347,0.634,0,0.5672,0.5701,0.5761,0.5777,0.5822,0.5855,0.5941,0.597,0.6134,0.6204,0.6302,0.6377,0.6561,0.6499,0.6636,0.667,0.6471,0.6688,0.6524,0.5783,0.5462,0.5255,0.6147,0.6266,0.6274,0.6279,0.6283,0.6286,0.5598,0.5597,0.5634,0.5649,0.5677,0.5661,0.5624,0.5715,0.5753,0.5778,0.6025,0.5968,0.6007,0.6109,0.6135,0.5813,0.5972,0.5604,0.5643,0.5558,0.523,0.5926,0.5865,0.587,0.5874,0.5878,0.5881,0,0.5436,0.5465,0.5484,0.5473,0.5422,0.5495,0.5498,0.5412,0.5358,0.5424,0.5464,0.5279,0.5184,0.5197,0.5002,0.48,0.4647,0.4663,0.4373,0.433,0.5077,0.4859,0.4371,0.4371,0.4371,0.4371,0.4372,0.4372,0.535,0.5313,0.5335,0.5204,0.5188,0.5024,0.4972,0.4878,0.4847,0.4607,0.4413,0.4434,0.4485,0.4421,0.4138,0.4036,0.3794,0.3585,0.3725,0.4218,0.4307,0.4392,0.4171,0.3547,0.3546,0.2712,0.2706,0.2701]},{"header":{"parameterUnit":"m.s-1","parameterCategory":2,"la1":30.2991,"la2":30.254,"lo1":-89.0895,"lo2":-89.0444,"dy":0.0017,"dx":0.0017,"nx":28,"ny":28,"refTime":"2025-07-10T03:00:00:Z","depth":"0","parameterNumber":3,"parameterNumberName":"V-component_of_CURRENTS"},"data":[0,0,0,0,0,0,0,0,0,0,0,0,0,0,0,0,0,0,0,0,0,0,0,0,0,0,0,0,0,0,0,0,0,0,0,0,0,0,0,0,0,0,0,0,0,0,0,0,0,0,0,0,0,0,0,0,0,0,0.0167,0.0167,0,0.0157,0.0156,0.0156,0.0103,0.0102,0.0102,0.0101,0.0037,0.0037,0.0036,0,0,0,0,0,0,0,0,0,0,0,0,0,0.0132,0.0133,0.0167,0.0167,0.0167,0.0157,0.0156,0.0156,0.0103,0.0102,0.0101,0.01,0.0038,0.0037,0.0036,0,0,0,0,0,0,0,0,0,0,0,0,0,0.0134,0.0133,0.0167,0.0143,0.0141,0.0157,0.0156,0.0156,0.0104,0.0102,0.0101,0.01,0.0038,0.0037,0.0035,0.0055,0,0,0.0032,0.0031,0,0,0,0,0,0,0,0,0.0134,0.0135,0.0146,0.0144,0.0142,0.0133,0.0121,0.0121,0.0104,0.0114,0.0101,0.0099,0.0068,0.0064,0.0061,0.0052,0.0049,0.0032,0.0031,0.003,0.003,0,0,0,0,0,0,0,0.0134,0.0135,0.0159,0.0147,0.0144,0.013,0.0128,0.0121,0.0095,0.0113,0.011,0.0115,0.0066,0.0062,0.0059,0.0049,0.0032,0.003,0.003,0.0029,0.0032,0.0033,0,0,0,0,0,0,0.0145,0.0135,0.016,0.0159,0.0139,0.0132,0.013,0.0134,0.0096,0.009,0.0116,0.0113,0.0065,0.006,0.0056,0.0081,0.003,0.0029,0.0028,0.0031,0.0032,0.0033,0,0,0,0,0,0,0.0144,0.0147,0.016,0.015,0.0151,0.0134,0.014,0.0135,0.013,0.01,0.0092,0.0117,0.0064,0.0058,0.0062,0.0078,0.0029,0.0027,0.003,0.0032,0.0033,0.0129,0,0,0,0,0,0,0.0143,0.0147,0.0151,0.0151,0.0152,0.0189,0.0141,0.0136,0.0138,0.0133,0.0098,0.0091,0.0062,0.0065,0.0061,0.0076,0.0026,0.0029,0.0031,0.0032,0.0125,0.0133,0.0141,0,0,0,0,0,0.0142,0.0173,0.0151,0.0154,0.0159,0.0192,0.0191,0.0171,0.0139,0.0157,0.0128,0.0092,0.0071,0.0065,0.0061,0.0075,0.0029,0.0031,0.0032,0.0121,0.0132,0.014,0,0,0,0,0,0,0.0171,0.0171,0.0147,0.0177,0.0186,0.0184,0.0203,0.018,0.017,0.0159,0.0114,0.0107,0.0113,0.0084,0.0078,0.0078,0.0039,0.004,0.0108,0.0118,0.0125,0.0186,0.0025,0,0,0,0,0,0.0177,0.0188,0.0192,0.0213,0.0225,0.0209,0.0216,0.0202,0.0196,0.0189,0.0164,0.0133,0.0119,0.0111,0.0096,0.0106,0.0127,0.0107,0.0115,0.0122,0.0167,0.0209,0.0226,0.0039,0.0039,0.0039,0,0,0.0192,0.0194,0.0199,0.0218,0.0222,0.0257,0.021,0.0235,0.0248,0.0186,0.0197,0.0167,0.0129,0.0138,0.0136,0.0114,0.0186,0.0125,0.0131,0.0173,0.0213,0.0231,0.0248,0.0041,0.004,0.004,0,0,0.0258,0.0236,0.028,0.0291,0.0307,0.0296,0.0307,0.0308,0.0294,0.0304,0.0257,0.0254,0.0221,0.0212,0.0197,0.0244,0.0229,0.0214,0.0304,0.0342,0.0359,0.0374,0.0432,0.0451,0.0215,0.0215,0.0215,0,0.0276,0.0321,0.0301,0.0352,0.0365,0.032,0.0373,0.0361,0.0355,0.0369,0.0319,0.0316,0.0266,0.0303,0.0303,0.0267,0.0292,0.027,0.0357,0.0372,0.0386,0.0441,0.0461,0.022,0.0219,0.0219,0.0218,0,0.0381,0.0408,0.0442,0.0473,0.0488,0.0523,0.0507,0.0513,0.0476,0.0472,0.0499,0.0448,0.0461,0.0417,0.0368,0.0436,0.0424,0.0366,0.0342,0.0412,0.0464,0.0483,0.0227,0.0225,0.0224,0.0222,0,0,0.0444,0.0501,0.051,0.0546,0.0547,0.0583,0.0599,0.0629,0.0687,0.0641,0.0721,0.0656,0.0647,0.0632,0.0573,0.0583,0.0672,0.0519,0.0518,0.0594,0.0786,0.0669,0.0679,0.0628,0.0632,0.0634,0.0787,0,0.0528,0.0645,0.0633,0.0722,0.0783,0.0737,0.0772,0.0786,0.0791,0.0859,0.0803,0.0853,0.0722,0.0745,0.0736,0.0714,0.0728,0.0639,0.0693,0.0696,0.0598,0.0698,0.0596,0.0713,0.0806,0.0809,0.0811,0,0.0647,0.0699,0.0805,0.0868,0.089,0.0926,0.0994,0.1022,0.1078,0.1091,0.1126,0.1101,0.1134,0.0993,0.1015,0.0968,0.0893,0.0845,0.0849,0.0729,0.0615,0.0655,0.0745,0.0516,0.0841,0.0838,0.0836,0,0.0744,0.0827,0.0909,0.0926,0.0983,0.102,0.1048,0.1109,0.1171,0.1271,0.1352,0.1368,0.1412,0.1339,0.1209,0.1139,0.1224,0.1115,0.0945,0.0937,0.0859,0.0836,0.0752,0.1124,0.1124,0.1123,0.1123,0,0.0852,0.093,0.0966,0.1017,0.1118,0.1129,0.1258,0.1295,0.1398,0.1533,0.1496,0.1617,0.1497,0.1501,0.1346,0.1234,0.1339,0.1014,0.098,0.0885,0.0863,0.0663,0.0531,0.1129,0.1128,0.1127,0.1126,0,0.0971,0.0992,0.1093,0.1151,0.1176,0.1256,0.1363,0.1477,0.1558,0.1744,0.1786,0.1855,0.1881,0.1732,0.1654,0.1429,0.1167,0.1222,0.1122,0.107,0.0649,0.0527,0.0447,0.0367,0.1101,0.11,0.1098,0,0.1052,0.1113,0.1186,0.1235,0.1263,0.137,0.1458,0.1548,0.168,0.1896,0.2009,0.2088,0.2166,0.201,0.1657,0.1413,0.1165,0.1091,0.0903,0.0656,0.0497,0.0405,0.0338,0.0859,0.0856,0.0853,0.0851,0,0.1168,0.1179,0.1239,0.1341,0.1429,0.1547,0.1688,0.1811,0.1957,0.2141,0.2383,0.247,0.2296,0.2024,0.1614,0.1378,0.0886,0.1021,0.0808,0.0348,0.0209,0.0104,0.0742,0.0826,0.0829,0.083,0.0832,0.0833,0.1225,0.1274,0.1328,0.1435,0.1544,0.1708,0.1837,0.2027,0.226,0.2559,0.2636,0.2803,0.2304,0.1751,0.1411,0.0651,0.0721,0.0388,0.0288,0.024,0.0064,0.0643,0.0632,0.0633,0.0634,0.0635,0.0636,0,0.1253,0.131,0.1418,0.1537,0.1679,0.173,0.1972,0.2133,0.2434,0.2727,0.2954,0.2735,0.2133,0.1487,0.0478,-0.0001,-0.0156,-0.025,-0.0397,-0.0408,0.0151,0.0032,-0.0163,-0.0162,-0.0162,-0.0162,-0.0162,-0.0161,0.126,0.1339,0.1401,0.1613,0.1723,0.1927,0.2072,0.2343,0.2579,0.2884,0.2957,0.299,0.2366,0.0704,-0.0402,-0.0633,-0.0907,-0.1018,-0.1064,-0.0729,-0.0677,-0.0628,-0.077,-0.113,-0.1131,-0.16,-0.1606,-0.161]}],[{"header":{"parameterUnit":"m.s-1","parameterCategory":2,"la1":30.2991,"la2":30.254,"lo1":-89.0895,"lo2":-89.0444,"dy":0.0017,"dx":0.0017,"nx":28,"ny":28,"refTime":"2025-07-10T03:00:00:Z","depth":"2","parameterNumber":2,"parameterNumberName":"U-component_of_CURRENTS"},"data":[0,0,0,0,0,0,0,0,0,0,0,0,0,0,0,0,0,0,0,0,0,0,0,0,0,0,0,0,0,0,0,0,0,0,0,0,0,0,0,0,0,0,0,0,0,0,0,0,0,0,0,0,0,0,0,0,0,0,0.3399,0.3401,0,0.3513,0.3514,0.3514,0.3482,0.3481,0.3479,0.3478,0.3475,0.3476,0.3478,0,0,0,0,0,0,0,0,0,0,0,0,0,0.328,0.3281,0.3398,0.3401,0.3403,0.3513,0.3514,0.3514,0.3482,0.348,0.3479,0.3477,0.3475,0.3476,0.3478,0,0,0,0,0,0,0,0,0,0,0,0,0,0.3347,0.3281,0.3398,0.3407,0.341,0.3513,0.3514,0.3515,0.3483,0.348,0.3478,0.3476,0.3474,0.3476,0.3478,0.3534,0,0,0.3484,0.3485,0,0,0,0,0,0,0,0,0.3343,0.335,0.3404,0.3407,0.341,0.3489,0.3472,0.3519,0.3483,0.3445,0.3478,0.3475,0.3477,0.3479,0.3493,0.3534,0.3534,0.3484,0.3485,0.3486,0.3487,0,0,0,0,0,0,0,0.3339,0.3346,0.3434,0.3407,0.3411,0.3451,0.3455,0.3481,0.3462,0.3448,0.3448,0.3477,0.3476,0.3491,0.3493,0.3534,0.3484,0.3486,0.3487,0.3488,0.3662,0.3665,0,0,0,0,0,0,0.334,0.3341,0.3431,0.3439,0.3382,0.3455,0.346,0.3458,0.3465,0.3467,0.3479,0.3475,0.3489,0.349,0.3492,0.3574,0.3486,0.3488,0.3489,0.3658,0.3662,0.3666,0,0,0,0,0,0,0.3336,0.3345,0.3426,0.3402,0.3416,0.3459,0.3458,0.3462,0.3501,0.3491,0.3489,0.3517,0.3487,0.349,0.3532,0.3572,0.3489,0.3491,0.3654,0.366,0.3664,0.3727,0,0,0,0,0,0,0.3332,0.3342,0.3349,0.3401,0.3418,0.351,0.3461,0.3466,0.3525,0.3521,0.3523,0.3519,0.3486,0.353,0.3534,0.3574,0.3492,0.365,0.3657,0.3663,0.3721,0.3734,0.3745,0,0,0,0,0,0.3326,0.3354,0.3348,0.336,0.3421,0.3514,0.3526,0.3543,0.3529,0.3565,0.3556,0.352,0.3574,0.3534,0.3539,0.3579,0.3647,0.3655,0.3662,0.3715,0.3731,0.3745,0,0,0,0,0,0,0.3313,0.3356,0.3349,0.3388,0.3455,0.3512,0.3562,0.3573,0.3599,0.3592,0.3562,0.3559,0.3615,0.3606,0.3563,0.3655,0.3607,0.3616,0.3646,0.3661,0.3673,0.3809,0.3494,0,0,0,0,0,0.3313,0.3336,0.3397,0.3432,0.3474,0.3523,0.3566,0.3581,0.3616,0.3626,0.3628,0.3635,0.3653,0.3661,0.368,0.3733,0.3779,0.3768,0.378,0.379,0.3909,0.3983,0.4013,0.3692,0.3692,0.3692,0,0,0.3311,0.335,0.3355,0.3431,0.3484,0.3548,0.3542,0.3627,0.3673,0.3623,0.3686,0.3685,0.3682,0.373,0.3754,0.3722,0.3895,0.38,0.3808,0.3925,0.3995,0.4026,0.4054,0.3697,0.3696,0.3695,0,0,0.3362,0.3368,0.342,0.3482,0.358,0.3598,0.3632,0.3708,0.3739,0.3818,0.3776,0.3844,0.3858,0.3879,0.3885,0.4001,0.3962,0.3958,0.412,0.4186,0.4214,0.4239,0.4282,0.4311,0.3954,0.3954,0.3954,0,0.3371,0.3421,0.3457,0.3545,0.3585,0.3623,0.3688,0.3745,0.3818,0.3873,0.3855,0.3967,0.3963,0.404,0.4083,0.4037,0.4044,0.4042,0.4203,0.4229,0.4254,0.4292,0.4323,0.3958,0.3958,0.3957,0.3957,0,0.3456,0.3511,0.3565,0.3644,0.3692,0.3766,0.383,0.3854,0.3893,0.4001,0.4132,0.4159,0.4246,0.4221,0.4201,0.4351,0.4285,0.4204,0.416,0.429,0.4321,0.4352,0.3964,0.3962,0.3961,0.396,0,0,0.3439,0.3588,0.3611,0.3619,0.3742,0.3754,0.3833,0.3933,0.403,0.4142,0.4291,0.4395,0.4491,0.4516,0.4476,0.4558,0.4717,0.4475,0.4476,0.4514,0.4841,0.4585,0.4593,0.4619,0.4626,0.4632,0.4769,0,0.3497,0.359,0.3691,0.3746,0.3753,0.3806,0.3896,0.3992,0.4125,0.4285,0.4409,0.4592,0.4574,0.4634,0.472,0.4716,0.4814,0.469,0.4722,0.4727,0.4478,0.4628,0.4277,0.4354,0.48,0.4805,0.4809,0,0.3625,0.3564,0.367,0.3703,0.3736,0.3803,0.3866,0.3981,0.4244,0.4372,0.4595,0.4767,0.4962,0.4912,0.5076,0.4973,0.4988,0.498,0.4981,0.4779,0.4533,0.4311,0.4393,0.4861,0.4856,0.4853,0.4849,0,0.3545,0.3614,0.3653,0.3674,0.3726,0.3754,0.3782,0.4017,0.4178,0.4483,0.4649,0.4928,0.5046,0.515,0.5193,0.5162,0.5306,0.5231,0.5031,0.5009,0.4756,0.4699,0.542,0.542,0.542,0.542,0.5419,0,0.3582,0.3587,0.3599,0.3582,0.3602,0.3663,0.3863,0.394,0.4206,0.4435,0.4728,0.4881,0.5122,0.5235,0.5262,0.5216,0.5362,0.5157,0.5064,0.4755,0.4699,0.5181,0.5152,0.5425,0.5423,0.5422,0.5422,0,0.3567,0.3632,0.3652,0.3618,0.3638,0.3643,0.3856,0.3975,0.4214,0.447,0.4589,0.4904,0.5059,0.5216,0.5355,0.5255,0.5262,0.5196,0.4807,0.4668,0.4929,0.4902,0.5102,0.5095,0.5089,0.5084,0.508,0,0.3608,0.3626,0.3688,0.3687,0.3692,0.3725,0.3803,0.3985,0.411,0.4425,0.4486,0.4791,0.493,0.5016,0.4972,0.5002,0.5135,0.4626,0.4559,0.5027,0.4917,0.4898,0.4879,0.424,0.4229,0.422,0.4213,0,0.3537,0.3678,0.3616,0.3649,0.3693,0.3761,0.3809,0.3902,0.4104,0.423,0.4337,0.4491,0.4648,0.4528,0.4551,0.4503,0.4608,0.4444,0.5068,0.4332,0.4213,0.4102,0.4114,0.4135,0.4143,0.4149,0.4153,0.4156,0.3546,0.3522,0.3557,0.3575,0.363,0.367,0.3673,0.3652,0.3737,0.3784,0.4005,0.4018,0.4143,0.4035,0.3905,0.3843,0.4172,0.4014,0.4043,0.4082,0.3915,0.3787,0.36,0.3604,0.3608,0.3612,0.3615,0,0.34,0.339,0.3433,0.3429,0.3414,0.3548,0.3585,0.3465,0.3323,0.3437,0.3436,0.3229,0.3197,0.3378,0.3162,0.3126,0.314,0.3028,0.3039,0.3118,0.3189,0.2978,0.2414,0.241,0.2407,0.2403,0,0,0.3305,0.3237,0.3256,0.3176,0.3218,0.3169,0.3166,0.2912,0.2885,0.2706,0.2705,0.2969,0.3233,0.2741,0.2694,0.2531,0.2805,0.2442,0.3411,0.3503,0.3568,0.3767,0.3531,0,0,0,0,0]},{"header":{"parameterUnit":"m.s-1","parameterCategory":2,"la1":30.2991,"la2":30.254,"lo1":-89.0895,"lo2":-89.0444,"dy":0.0017,"dx":0.0017,"nx":28,"ny":28,"refTime":"2025-07-10T03:00:00:Z","depth":"2","parameterNumber":3,"parameterNumberName":"V-component_of_CURRENTS"},"data":[0,0,0,0,0,0,0,0,0,0,0,0,0,0,0,0,0,0,0,0,0,0,0,0,0,0,0,0,0,0,0,0,0,0,0,0,0,0,0,0,0,0,0,0,0,0,0,0,0,0,0,0,0,0,0,0,0,0,0.0018,0.0018,0,-0.0,-0.0001,-0.0001,-0.0036,-0.0037,-0.0037,-0.0038,-0.0105,-0.0107,-0.0108,0,0,0,0,0,0,0,0,0,0,0,0,0,-0.0003,-0.0003,0.0018,0.0018,0.0018,-0.0,-0.0001,-0.0001,-0.0036,-0.0037,-0.0037,-0.0038,-0.0105,-0.0107,-0.0108,0,0,0,0,0,0,0,0,0,0,0,0,0,-0.0008,-0.0003,0.0018,0.0,-0.0001,-0.0,-0.0001,-0.0001,-0.0036,-0.0037,-0.0038,-0.0038,-0.0104,-0.0106,-0.0109,-0.0108,0,0,-0.0115,-0.0116,0,0,0,0,0,0,0,0,-0.0007,-0.0007,0.0003,0.0002,-0.0,-0.0014,-0.0033,-0.0039,-0.0036,-0.0026,-0.0038,-0.0038,-0.0077,-0.0082,-0.0087,-0.0111,-0.0114,-0.0115,-0.0116,-0.0117,-0.0118,0,0,0,0,0,0,0,-0.0007,-0.0007,0.0008,0.0003,0.0001,-0.0015,-0.0017,-0.0034,-0.0051,-0.0027,-0.0029,-0.0026,-0.0079,-0.0085,-0.0089,-0.0115,-0.0115,-0.0117,-0.0118,-0.0119,-0.0175,-0.0175,0,0,0,0,0,0,0.0003,-0.0006,0.0008,0.0008,-0.0002,-0.0014,-0.0016,-0.0011,-0.005,-0.0055,-0.0026,-0.0028,-0.0081,-0.0086,-0.0091,-0.0103,-0.0117,-0.0119,-0.012,-0.0175,-0.0175,-0.0175,0,0,0,0,0,0,0.0003,0.0005,0.0009,0.0002,0.0002,-0.0013,-0.0008,-0.0011,-0.0015,-0.0047,-0.0054,-0.0025,-0.0082,-0.0088,-0.0102,-0.0106,-0.012,-0.0122,-0.0174,-0.0175,-0.0175,-0.012,0,0,0,0,0,0,0.0002,0.0005,0.0009,0.0003,0.0003,0.0026,-0.0007,-0.0011,-0.0011,-0.0014,-0.0049,-0.0056,-0.0083,-0.0099,-0.0104,-0.0109,-0.0124,-0.0174,-0.0175,-0.0175,-0.0122,-0.0119,-0.0116,0,0,0,0,0,0.0001,0.0025,0.001,0.0012,0.0011,0.0028,0.0027,0.0011,-0.001,0.0002,-0.0031,-0.0055,-0.0107,-0.01,-0.0107,-0.0112,-0.0174,-0.0174,-0.0175,-0.0123,-0.0119,-0.0116,0,0,0,0,0,0,0.0024,0.0023,0.0007,0.0029,0.0031,0.0023,0.0038,0.0018,0.0001,-0.0006,-0.0048,-0.0056,-0.0076,-0.0098,-0.0091,-0.0132,-0.0148,-0.015,-0.0107,-0.0104,-0.0101,-0.0067,-0.0125,0,0,0,0,0,0.0029,0.0038,0.0039,0.0052,0.0064,0.0047,0.005,0.0038,0.0025,0.0017,-0.001,-0.0047,-0.0083,-0.0095,-0.0123,-0.0133,-0.0153,-0.0146,-0.0143,-0.014,-0.0119,-0.0137,-0.0133,-0.0177,-0.0177,-0.0177,0,0,0.0038,0.004,0.0043,0.0056,0.0058,0.008,0.0048,0.0064,0.0064,0.0012,0.0007,-0.0034,-0.0084,-0.0103,-0.0114,-0.0121,-0.0145,-0.0141,-0.0138,-0.0118,-0.0137,-0.0132,-0.0128,-0.0177,-0.0177,-0.0177,0,0,0.0086,0.0071,0.0108,0.0114,0.0126,0.0109,0.0117,0.0113,0.0098,0.009,0.0039,0.0003,-0.0034,-0.0075,-0.0103,-0.0099,-0.013,-0.0116,-0.007,-0.0088,-0.0084,-0.008,-0.0124,-0.0125,-0.0112,-0.0112,-0.0112,0,0.0096,0.0135,0.0121,0.0163,0.0168,0.0127,0.0164,0.0145,0.0128,0.0121,0.0098,0.0028,-0.0023,-0.0056,-0.0065,-0.0092,-0.0107,-0.0077,-0.0082,-0.0078,-0.0076,-0.0121,-0.0123,-0.011,-0.011,-0.011,-0.0111,0,0.0182,0.0201,0.0228,0.0251,0.0256,0.0277,0.0255,0.0246,0.021,0.0188,0.0158,0.0091,0.0052,0.0015,-0.0026,-0.004,-0.0062,-0.0076,-0.0083,-0.0067,-0.0118,-0.012,-0.0106,-0.0107,-0.0108,-0.0108,0,0,0.0221,0.0276,0.0283,0.0301,0.0298,0.0313,0.0309,0.0301,0.0279,0.0262,0.0257,0.0178,0.0145,0.0111,0.0048,0.0024,-0.0002,-0.0009,-0.0011,-0.004,-0.0049,-0.0072,-0.0078,-0.0004,-0.0004,-0.0003,-0.0101,0,0.0285,0.0375,0.0376,0.0423,0.0458,0.0415,0.0397,0.0376,0.0332,0.0315,0.0266,0.0223,0.0178,0.0138,0.0121,0.0023,0.0,0.0026,-0.0071,-0.0074,-0.0084,-0.0078,-0.0049,-0.0132,-0.0104,-0.0104,-0.0104,0,0.0351,0.0406,0.0469,0.0487,0.0497,0.0502,0.0459,0.0443,0.0399,0.0361,0.0345,0.0304,0.026,0.0217,0.0116,0.0141,0.0064,-0.0005,-0.0011,-0.0043,-0.0099,-0.0141,-0.0138,-0.0109,-0.0109,-0.0108,-0.0108,0,0.0349,0.0452,0.0493,0.0504,0.052,0.0525,0.0521,0.0464,0.0451,0.0396,0.0401,0.0338,0.0325,0.0234,0.0126,0.0112,0.0028,-0.0022,-0.011,-0.0115,-0.0114,-0.0119,-0.0071,-0.0071,-0.007,-0.007,-0.007,0,0.0368,0.0406,0.0505,0.0508,0.0549,0.0554,0.0537,0.0503,0.0487,0.0551,0.0438,0.051,0.034,0.0297,0.0162,0.0036,0.0058,-0.0093,-0.013,-0.01,-0.0101,-0.0093,-0.0094,-0.0074,-0.0073,-0.0072,-0.0072,0,0.0325,0.0375,0.0423,0.0493,0.0525,0.0542,0.0583,0.0602,0.0546,0.0641,0.0649,0.0631,0.058,0.0395,0.0239,0.0092,-0.0059,-0.0103,-0.0069,-0.0099,-0.0213,-0.021,-0.0254,-0.0255,-0.0256,-0.0257,-0.0258,0,0.0307,0.0329,0.0413,0.0465,0.05,0.0555,0.0609,0.0606,0.0696,0.0791,0.0915,0.0864,0.0929,0.0621,0.0312,0.0012,0.0001,-0.017,-0.0201,-0.0194,-0.0226,-0.0222,-0.0218,-0.0201,-0.0201,-0.0201,-0.0202,0,0.0288,0.0296,0.0358,0.0476,0.056,0.0658,0.0799,0.0884,0.0985,0.1103,0.1337,0.1377,0.1095,0.0817,0.0337,0.0147,-0.0142,-0.0185,-0.0166,-0.0151,-0.015,-0.0179,-0.0176,-0.0204,-0.0203,-0.0203,-0.0203,-0.0203,0.0282,0.0328,0.0421,0.0539,0.0647,0.0838,0.0955,0.1191,0.1396,0.165,0.1668,0.1715,0.1305,0.0709,0.0334,-0.0109,-0.0104,-0.027,-0.0267,-0.0264,-0.0232,-0.0231,-0.0297,-0.0297,-0.0298,-0.0298,-0.0298,0,0.0338,0.0411,0.0518,0.0676,0.0845,0.0871,0.1153,0.1344,0.1708,0.1872,0.2019,0.1655,0.1295,0.084,0.018,-0.0223,-0.0253,-0.0328,-0.0282,-0.0278,-0.0275,-0.0242,-0.0312,-0.0312,-0.0313,-0.0314,0,0,0.037,0.0502,0.0581,0.0864,0.0979,0.1218,0.139,0.1701,0.1889,0.2088,0.2083,0.1954,0.1415,0.0936,0.0401,0.0054,-0.0018,-0.0015,0.0032,0.0151,0.016,-0.0213,-0.0154,0,0,0,0,0]}],[{"header":{"parameterUnit":"m.s-1","parameterCategory":2,"la1":30.2991,"la2":30.254,"lo1":-89.0895,"lo2":-89.0444,"dy":0.0017,"dx":0.0017,"nx":28,"ny":28,"refTime":"2025-07-10T03:00:00:Z","depth":"4","parameterNumber":2,"parameterNumberName":"U-component_of_CURRENTS"},"data":[0,0,0,0,0,0,0,0,0,0,0,0,0,0,0,0,0,0,0,0,0,0,0,0,0,0,0,0,0,0,0,0,0,0,0,0,0,0,0,0,0,0,0,0,0,0,0,0,0,0,0,0,0,0,0,0,0,0,0.1656,0.1657,0,0.1729,0.1729,0.173,0.178,0.1781,0.1782,0.1783,0.1841,0.1842,0.1842,0,0,0,0,0,0,0,0,0,0,0,0,0,0.1574,0.1575,0.1656,0.1657,0.1659,0.1729,0.1729,0.173,0.178,0.1781,0.1783,0.1784,0.1841,0.1842,0.1842,0,0,0,0,0,0,0,0,0,0,0,0,0,0.1617,0.1575,0.1655,0.1698,0.1703,0.1729,0.1729,0.173,0.178,0.1781,0.1783,0.1785,0.1841,0.1842,0.1842,0.1814,0,0,0.1845,0.1845,0,0,0,0,0,0,0,0,0.1615,0.1619,0.169,0.1695,0.1701,0.1754,0.1723,0.176,0.1779,0.1742,0.1784,0.1785,0.1814,0.1818,0.1817,0.1817,0.182,0.1845,0.1845,0.1846,0.1846,0,0,0,0,0,0,0,0.1612,0.1617,0.1677,0.1692,0.1699,0.172,0.1727,0.1729,0.1762,0.1746,0.1752,0.1772,0.1817,0.1816,0.1819,0.182,0.1845,0.1845,0.1846,0.1846,0.1976,0.1979,0,0,0,0,0,0,0.1616,0.1614,0.1675,0.168,0.167,0.172,0.1728,0.1729,0.1763,0.1772,0.177,0.1774,0.1814,0.1818,0.1821,0.1904,0.1846,0.1846,0.1847,0.1973,0.1976,0.198,0,0,0,0,0,0,0.1613,0.162,0.1672,0.1656,0.1665,0.1721,0.1721,0.173,0.1778,0.1783,0.179,0.1817,0.1815,0.182,0.1888,0.1903,0.1847,0.1847,0.1969,0.1974,0.1978,0.1998,0,0,0,0,0,0,0.161,0.1617,0.1638,0.1655,0.1666,0.1717,0.1721,0.173,0.1789,0.1795,0.1824,0.1828,0.1817,0.1887,0.1889,0.1903,0.1848,0.1966,0.1971,0.1977,0.1993,0.2002,0.201,0,0,0,0,0,0.1607,0.1616,0.1638,0.1648,0.1686,0.1719,0.1727,0.1766,0.179,0.1814,0.1857,0.183,0.1924,0.189,0.1892,0.1906,0.1963,0.197,0.1976,0.199,0.2,0.201,0,0,0,0,0,0,0.1596,0.1623,0.1648,0.1668,0.1712,0.1732,0.1765,0.1792,0.1841,0.1866,0.1864,0.1872,0.1942,0.1935,0.1898,0.1968,0.1939,0.1947,0.1949,0.196,0.1968,0.193,0.1849,0,0,0,0,0,0.1604,0.1622,0.1656,0.1685,0.1704,0.1744,0.1773,0.1805,0.1844,0.1869,0.1894,0.1929,0.196,0.1972,0.2004,0.2029,0.2044,0.2046,0.2054,0.2061,0.2037,0.2147,0.2162,0.2002,0.2002,0.2001,0,0,0.1603,0.1633,0.164,0.1686,0.172,0.1737,0.1764,0.1823,0.1846,0.1866,0.1922,0.1969,0.1984,0.2027,0.2054,0.2023,0.211,0.2069,0.2074,0.2046,0.2155,0.217,0.2184,0.2006,0.2005,0.2005,0,0,0.1613,0.1646,0.1661,0.17,0.1772,0.1777,0.1804,0.1856,0.1892,0.1956,0.1983,0.2039,0.2088,0.2087,0.2092,0.2164,0.2168,0.2196,0.2179,0.2287,0.23,0.2311,0.2319,0.2331,0.2179,0.2179,0.2179,0,0.1615,0.1627,0.1677,0.1714,0.1734,0.1793,0.1806,0.1844,0.192,0.1956,0.1989,0.2089,0.2099,0.2125,0.215,0.2172,0.2226,0.2129,0.2294,0.2306,0.2318,0.2323,0.2337,0.2181,0.2181,0.2181,0.2181,0,0.1624,0.165,0.1668,0.1708,0.1749,0.177,0.1825,0.1882,0.1937,0.1979,0.2074,0.2111,0.2175,0.2181,0.2177,0.2256,0.2262,0.2307,0.2256,0.2335,0.2336,0.2349,0.2184,0.2183,0.2183,0.2182,0,0,0.1521,0.164,0.1635,0.1669,0.1738,0.1762,0.1818,0.1861,0.1905,0.2005,0.2076,0.2116,0.2189,0.22,0.2224,0.2268,0.2372,0.232,0.2325,0.2302,0.2573,0.2431,0.2431,0.2485,0.2489,0.2492,0.2527,0,0.1483,0.154,0.1597,0.1626,0.1646,0.1726,0.1761,0.1844,0.1917,0.2015,0.2093,0.2185,0.2183,0.2246,0.2301,0.2385,0.2416,0.2353,0.2521,0.2522,0.2369,0.2446,0.2502,0.2537,0.254,0.2542,0.2544,0,0.139,0.1471,0.1504,0.1592,0.1604,0.1641,0.1713,0.1767,0.1915,0.1985,0.2108,0.2226,0.2321,0.2338,0.2475,0.2462,0.2514,0.2542,0.2547,0.241,0.2407,0.2456,0.2568,0.2566,0.2564,0.2563,0.2561,0,0.1242,0.1341,0.1367,0.1405,0.1546,0.1592,0.1651,0.1774,0.186,0.2013,0.214,0.2255,0.2396,0.2486,0.2581,0.258,0.2721,0.2737,0.2623,0.261,0.2713,0.2701,0.2826,0.2826,0.2826,0.2826,0.2826,0,0.1099,0.1131,0.1325,0.136,0.1417,0.1542,0.1616,0.1682,0.1865,0.1968,0.2159,0.2283,0.2469,0.2606,0.2626,0.2656,0.2781,0.2608,0.2628,0.2716,0.2705,0.272,0.2707,0.2827,0.2827,0.2827,0.2826,0,0.093,0.1037,0.1112,0.1297,0.1357,0.1416,0.1628,0.1683,0.1869,0.2034,0.2127,0.2389,0.2539,0.2653,0.2779,0.2723,0.2739,0.2711,0.2739,0.2762,0.2529,0.2517,0.2584,0.258,0.2576,0.2573,0.2571,0,0.0854,0.0877,0.1069,0.1132,0.1232,0.1371,0.1445,0.1642,0.1715,0.2061,0.2118,0.2412,0.2545,0.2601,0.2701,0.2708,0.2689,0.2653,0.2614,0.25,0.2514,0.2508,0.2501,0.2565,0.2564,0.2563,0.2562,0,0.0757,0.0823,0.09,0.1025,0.1123,0.1235,0.1371,0.1448,0.1672,0.1891,0.2093,0.2261,0.2426,0.2518,0.2553,0.2551,0.2653,0.2615,0.2622,0.2585,0.2477,0.2493,0.2491,0.2549,0.2551,0.2552,0.2553,0,0.068,0.0702,0.0798,0.0894,0.1011,0.1088,0.1181,0.1322,0.1467,0.1837,0.1885,0.218,0.2386,0.2438,0.2459,0.2462,0.2437,0.2345,0.2366,0.2381,0.2304,0.2137,0.2117,0,0,0,0,0,0.0608,0.0623,0.0679,0.0774,0.0875,0.0955,0.1121,0.1221,0.1473,0.1551,0.173,0.1871,0.2052,0.2197,0.2162,0.2346,0.2406,0.2293,0.2299,0.2479,0.2494,0.2425,0,0,0,0,0,0,0.0557,0.0601,0.0632,0.0672,0.0712,0.0812,0.0919,0.1072,0.1132,0.1409,0.151,0.1733,0.1908,0.2039,0.2119,0.2152,0.2113,0.2452,0.2447,0.2471,0.2484,0.2496,0.243,0,0,0,0,0]},{"header":{"parameterUnit":"m.s-1","parameterCategory":2,"la1":30.2991,"la2":30.254,"lo1":-89.0895,"lo2":-89.0444,"dy":0.0017,"dx":0.0017,"nx":28,"ny":28,"refTime":"2025-07-10T03:00:00:Z","depth":"4","parameterNumber":3,"parameterNumberName":"V-component_of_CURRENTS"},"data":[0,0,0,0,0,0,0,0,0,0,0,0,0,0,0,0,0,0,0,0,0,0,0,0,0,0,0,0,0,0,0,0,0,0,0,0,0,0,0,0,0,0,0,0,0,0,0,0,0,0,0,0,0,0,0,0,0,0,0.006,0.006,0,0.0044,0.0044,0.0043,0.0026,0.0026,0.0026,0.0026,-0.0013,-0.0013,-0.0014,0,0,0,0,0,0,0,0,0,0,0,0,0,0.0047,0.0048,0.006,0.006,0.006,0.0044,0.0044,0.0043,0.0026,0.0026,0.0026,0.0026,-0.0012,-0.0013,-0.0014,0,0,0,0,0,0,0,0,0,0,0,0,0,0.0043,0.0048,0.006,0.0051,0.005,0.0044,0.0044,0.0043,0.0026,0.0026,0.0026,0.0026,-0.0012,-0.0013,-0.0015,-0.002,0,0,-0.0019,-0.0019,0,0,0,0,0,0,0,0,0.0043,0.0043,0.0052,0.0051,0.005,0.0038,0.0025,0.0022,0.0026,0.0033,0.0026,0.0026,0.0003,0.0001,-0.0004,-0.0022,-0.0023,-0.0019,-0.002,-0.002,-0.0021,0,0,0,0,0,0,0,0.0043,0.0044,0.0052,0.0052,0.0051,0.0037,0.0036,0.0024,0.0018,0.0033,0.0032,0.0032,0.0003,-0.0002,-0.0005,-0.0024,-0.0019,-0.002,-0.0021,-0.0021,-0.0069,-0.0069,0,0,0,0,0,0,0.005,0.0044,0.0053,0.0052,0.0048,0.0038,0.0037,0.0041,0.0019,0.0016,0.0033,0.0032,0.0,-0.0003,-0.0006,-0.0007,-0.002,-0.0022,-0.0022,-0.0068,-0.0069,-0.0069,0,0,0,0,0,0,0.005,0.0051,0.0053,0.0048,0.0048,0.0039,0.0043,0.0041,0.0039,0.0019,0.0015,0.0034,-0.0,-0.0004,-0.0017,-0.0009,-0.0022,-0.0023,-0.0068,-0.0068,-0.0069,-0.0014,0,0,0,0,0,0,0.005,0.0051,0.0055,0.0049,0.0049,0.0063,0.0043,0.0041,0.0041,0.0039,0.0019,0.0015,-0.0001,-0.0015,-0.0018,-0.0011,-0.0024,-0.0067,-0.0068,-0.0069,-0.0015,-0.0012,-0.001,0,0,0,0,0,0.0049,0.0069,0.0056,0.0057,0.0055,0.0064,0.0063,0.0054,0.0041,0.0049,0.0026,0.0016,-0.0023,-0.0016,-0.002,-0.0013,-0.0067,-0.0068,-0.0069,-0.0016,-0.0013,-0.001,0,0,0,0,0,0,0.007,0.0068,0.0054,0.0072,0.0069,0.0062,0.0072,0.0058,0.0046,0.0041,0.0016,0.001,-0.0,-0.0019,-0.0011,-0.0033,-0.0049,-0.005,-0.0007,-0.0005,-0.0002,0.0022,-0.0026,0,0,0,0,0,0.0074,0.0081,0.0078,0.0087,0.0094,0.0079,0.008,0.0071,0.0061,0.0056,0.0041,0.0016,-0.0008,-0.0015,-0.0035,-0.0041,-0.0083,-0.0043,-0.0041,-0.0038,-0.0024,-0.0097,-0.01,-0.0072,-0.0072,-0.0072,0,0,0.0083,0.0082,0.0085,0.0091,0.0089,0.0113,0.008,0.0089,0.0099,0.0053,0.0064,0.0027,-0.001,-0.0019,-0.0026,-0.0031,-0.0071,-0.004,-0.0037,-0.0024,-0.0099,-0.0101,-0.0104,-0.0073,-0.0073,-0.0073,0,0,0.0122,0.0108,0.0137,0.0141,0.0144,0.0134,0.014,0.0136,0.0127,0.0122,0.0086,0.0052,0.0033,0.0002,-0.0017,-0.0016,-0.0058,-0.0022,0.0017,-0.0054,-0.0057,-0.006,-0.0123,-0.0132,-0.0017,-0.0017,-0.0017,0,0.0131,0.0167,0.0146,0.0181,0.0192,0.0151,0.0191,0.0175,0.0163,0.0159,0.0135,0.0074,0.0041,0.0014,0.0014,-0.0008,-0.0052,0.0014,-0.005,-0.0054,-0.0057,-0.0122,-0.0132,-0.0015,-0.0015,-0.0015,-0.0016,0,0.0204,0.0226,0.0247,0.0271,0.0279,0.0301,0.0284,0.0282,0.0255,0.0234,0.0199,0.0133,0.0099,0.0073,0.0048,0.0009,-0.0015,-0.004,-0.0052,-0.0056,-0.0125,-0.0136,-0.0011,-0.0012,-0.0013,-0.0013,0,0,0.0249,0.0288,0.0302,0.0324,0.0327,0.0347,0.0356,0.0358,0.0366,0.0313,0.0309,0.0236,0.0188,0.0161,0.0105,0.0043,-0.003,0.0003,-0.0003,-0.005,-0.0183,-0.0152,-0.0162,-0.0066,-0.0068,-0.0069,-0.0222,0,0.0314,0.0397,0.0398,0.0463,0.0498,0.0467,0.0487,0.0474,0.0436,0.042,0.032,0.0296,0.0223,0.0204,0.0124,0.0014,-0.0057,0.0014,-0.018,-0.0186,-0.0149,-0.0173,-0.0074,-0.0231,-0.0234,-0.0236,-0.0238,0,0.0401,0.0436,0.0522,0.0557,0.0575,0.0609,0.0623,0.0634,0.0585,0.0549,0.048,0.0408,0.0312,0.0246,0.0039,0.0089,-0.0034,-0.0134,-0.0143,-0.0135,-0.0175,-0.0228,-0.026,-0.0258,-0.0256,-0.0255,-0.0253,0,0.0464,0.0528,0.0596,0.0611,0.0645,0.0681,0.0703,0.0684,0.0703,0.0637,0.0631,0.0485,0.0422,0.0242,0.0035,0.0038,-0.0202,-0.0229,-0.0324,-0.0324,-0.033,-0.0326,-0.0377,-0.0377,-0.0377,-0.0376,-0.0376,0,0.0536,0.0593,0.0635,0.0678,0.0752,0.0758,0.0836,0.0816,0.0813,0.0822,0.0712,0.0663,0.0419,0.0255,0.0056,-0.0168,-0.0197,-0.0316,-0.036,-0.0305,-0.0296,-0.034,-0.0333,-0.0382,-0.0381,-0.038,-0.0379,0,0.0598,0.063,0.0705,0.0764,0.0789,0.0848,0.0939,0.0983,0.0968,0.0969,0.0958,0.0797,0.0574,0.0326,0.002,-0.0121,-0.0349,-0.0424,-0.0341,-0.0379,-0.0429,-0.0418,-0.0535,-0.0535,-0.0535,-0.0535,-0.0536,0,0.0635,0.0681,0.0773,0.0819,0.0854,0.0948,0.1015,0.105,0.1074,0.1031,0.1013,0.0845,0.0699,0.0299,0.003,-0.0332,-0.0381,-0.0482,-0.0457,-0.0413,-0.0445,-0.0434,-0.0423,-0.0536,-0.0536,-0.0536,-0.0536,0,0.0678,0.0719,0.0774,0.0881,0.0964,0.1059,0.114,0.117,0.118,0.1182,0.1055,0.0866,0.0619,0.0299,0.0031,-0.0237,-0.0404,-0.0485,-0.0486,-0.0463,-0.0415,-0.0444,-0.0434,-0.0536,-0.0536,-0.0536,-0.0536,0,0.0703,0.0741,0.0825,0.0913,0.1026,0.1114,0.1166,0.1184,0.1219,0.1151,0.1095,0.0848,0.0695,0.0346,0.0081,-0.0154,-0.0212,-0.0272,-0.0286,-0.0289,-0.0164,-0.0064,-0.0113,0,0,0,0,0,0.0707,0.0754,0.0846,0.0943,0.1064,0.1131,0.1215,0.1247,0.1254,0.1175,0.114,0.0904,0.0546,0.0384,0.0152,0.0069,-0.0258,-0.0208,-0.0337,-0.0538,-0.0538,-0.043,0,0,0,0,0,0,0.0709,0.0788,0.0838,0.096,0.1032,0.1162,0.1222,0.1221,0.1169,0.1136,0.0938,0.0866,0.0502,0.067,0.0149,0.0079,-0.0027,-0.0374,-0.0379,-0.0538,-0.0538,-0.0538,-0.0426,0,0,0,0,0]}]]